Orbital Elements at Epoch 2459200.5 (2020-Dec-17.0) TDB
Reference: JPL 34 (heliocentric ecliptic J2000)
Element | Value | Uncertainty (1-sigma) | Units |
e | .09340588771642573 | 2.862e-08 | |
a | 2.925152420904736 | 1.1733e-08 | au |
q | 2.651925962324277 | 8.808e-08 | au |
i | 1.187834000385653 | 3.2851e-06 | deg |
node | 213.3148901880403 | 0.00013844 | deg |
peri | 235.7949138394454 | 0.00013969 | deg |
M | 324.4443369512032 | 1.8019e-05 | deg |
tp | 2459380.979325463927 (2021-Jun-15.47932546) | 9.1627e-05 | TDB |
period | 1827.34764579822 5.00 | 1.0994e-05 3.01e-08 | d yr |
n | .1970068480553109 | 1.1853e-09 | deg/d |
Q | 3.198378879485195 | 1.2828e-08 | au |
|
| | Orbit Determination Parameters
Additional Information
|